| time (UTC) | temp C | wind direction | speed KPH | gust KPH | rain 1hr cm | rain 24hr cm | rain mn cm | humidity % | barometer mb |
| 20260507115145 | 10 | 282 | 1.6 | 1.6 | 0.00 | 0.03 | 0.03 | 79 | 1007.8 |
| 20260507114642 | 10 | 296 | 0.0 | 3.2 | 0.00 | 0.03 | 0.03 | 78 | 1007.6 |
| 20260507114139 | 10 | 315 | 0.0 | 0.0 | 0.00 | 0.03 | 0.03 | 80 | 1007.5 |
| 20260507113637 | 10 | 320 | 0.0 | 0.0 | 0.00 | 0.03 | 0.03 | 81 | 1007.7 |
| 20260507113133 | 10 | 288 | 0.0 | 0.0 | 0.00 | 0.03 | 0.03 | 81 | 1007.7 |
| 20260507112631 | 10 | 324 | 0.0 | 0.0 | 0.00 | 0.03 | 0.03 | 82 | 1007.8 |
| 20260507112127 | 10 | 334 | 0.0 | 0.0 | 0.00 | 0.03 | 0.03 | 82 | 1007.7 |
| 20260507111625 | 10 | 305 | 0.0 | 0.0 | 0.00 | 0.03 | 0.03 | 84 | 1007.5 |
| 20260507111122 | 9 | 305 | 0.0 | 0.0 | 0.00 | 0.03 | 0.03 | 83 | 1007.4 |
| 20260507110618 | 9 | 305 | 3.2 | 3.2 | 0.00 | 0.03 | 0.03 | 84 | 1007.3 |
| 20260507110115 | 9 | 330 | 0.0 | 1.6 | 0.00 | 0.03 | 0.03 | 85 | 1007.6 |
| 20260507105612 | 9 | 330 | 0.0 | 0.0 | 0.00 | 0.03 | 0.03 | 85 | 1007.6 |
| 20260507105107 | 9 | 330 | 0.0 | 0.0 | 0.00 | 0.03 | 0.03 | 86 | 1007.6 |
| 20260507104606 | 9 | 330 | 0.0 | 0.0 | 0.00 | 0.03 | 0.03 | 85 | 1007.8 |
| 20260507104101 | 9 | 330 | 0.0 | 0.0 | 0.00 | 0.03 | 0.03 | 85 | 1007.7 |
| 20260507103557 | 9 | 330 | 0.0 | 0.0 | 0.00 | 0.03 | 0.03 | 85 | 1007.1 |
| 20260507103054 | 9 | 331 | 0.0 | 1.6 | 0.00 | 0.03 | 0.03 | 85 | 1006.9 |
| 20260507102550 | 9 | 331 | 0.0 | 0.0 | 0.00 | 0.03 | 0.03 | 86 | 1006.9 |
| 20260507102047 | 9 | 330 | 1.6 | 1.6 | 0.00 | 0.03 | 0.03 | 86 | 1006.8 |
| 20260507101542 | 9 | 331 | 0.0 | 0.0 | 0.00 | 0.03 | 0.03 | 87 | 1006.8 |
| 20260507101039 | 9 | 287 | 0.0 | 0.0 | 0.00 | 0.03 | 0.03 | 87 | 1007.0 |
| 20260507100536 | 9 | 285 | 0.0 | 0.0 | 0.00 | 0.03 | 0.03 | 87 | 1007.1 |
| 20260507100034 | 9 | 282 | 0.0 | 0.0 | 0.00 | 0.03 | 0.03 | 87 | 1006.8 |
| 20260507095532 | 9 | 277 | 0.0 | 0.0 | 0.00 | 0.03 | 0.03 | 88 | 1006.5 |
| 20260507095028 | 9 | 286 | 0.0 | 0.0 | 0.00 | 0.03 | 0.03 | 88 | 1006.7 |
| 20260507094525 | 9 | 284 | 0.0 | 3.2 | 0.00 | 0.03 | 0.03 | 87 | 1006.8 |
| 20260507094022 | 9 | 336 | 0.0 | 1.6 | 0.00 | 0.03 | 0.03 | 88 | 1007.0 |
| 20260507093519 | 9 | 336 | 0.0 | 0.0 | 0.00 | 0.03 | 0.03 | 87 | 1007.2 |
| 20260507093018 | 9 | 336 | 0.0 | 1.6 | 0.00 | 0.03 | 0.03 | 86 | 1007.2 |
| 20260507092514 | 10 | 336 | 0.0 | 1.6 | 0.00 | 0.03 | 0.03 | 85 | 1006.9 |
| 20260507092011 | 10 | 314 | 0.0 | 0.0 | 0.00 | 0.03 | 0.03 | 86 | 1007.0 |
| 20260507091507 | 10 | 299 | 0.0 | 0.0 | 0.00 | 0.03 | 0.03 | 86 | 1007.0 |
| 20260507091003 | 10 | 298 | 0.0 | 1.6 | 0.00 | 0.03 | 0.03 | 86 | 1007.3 |
| 20260507090459 | 10 | 298 | 0.0 | 1.6 | 0.00 | 0.03 | 0.03 | 86 | 1007.3 |
| 20260507085956 | 10 | 298 | 0.0 | 1.6 | 0.00 | 0.03 | 0.03 | 87 | 1007.2 |
| 20260507085453 | 10 | 309 | 0.0 | 0.0 | 0.00 | 0.03 | 0.03 | 88 | 1007.0 |
| 20260507084950 | 10 | 309 | 0.0 | 0.0 | 0.00 | 0.03 | 0.03 | 88 | 1007.2 |
| 20260507084447 | 10 | 309 | 0.0 | 1.6 | 0.00 | 0.03 | 0.03 | 88 | 1006.8 |
| 20260507083944 | 10 | 307 | 0.0 | 1.6 | 0.00 | 0.03 | 0.03 | 89 | 1006.7 |
| 20260507083440 | 10 | 311 | 0.0 | 0.0 | 0.00 | 0.03 | 0.03 | 90 | 1007.0 |
| 20260507082936 | 10 | 311 | 1.6 | 1.6 | 0.00 | 0.03 | 0.03 | 89 | 1006.9 |
| 20260507082432 | 10 | 318 | 0.0 | 0.0 | 0.00 | 0.03 | 0.03 | 90 | 1006.6 |
| 20260507081929 | 10 | 318 | 0.0 | 0.0 | 0.00 | 0.03 | 0.03 | 90 | 1006.5 |
| 20260507081426 | 10 | 318 | 0.0 | 0.0 | 0.00 | 0.03 | 0.03 | 90 | 1006.3 |
| 20260507080923 | 10 | 307 | 0.0 | 0.0 | 0.00 | 0.03 | 0.03 | 90 | 1006.4 |
| 20260507080419 | 11 | 307 | 0.0 | 0.0 | 0.13 | 0.03 | 0.03 | 90 | 1006.4 |
| 20260507075914 | 11 | 309 | 0.0 | 0.0 | 0.13 | 0.03 | 0.03 | 89 | 1006.8 |
| 20260507075411 | 11 | 309 | 0.0 | 1.6 | 0.00 | 0.00 | 0.00 | 88 | 1007.0 |
| 20260507074907 | 11 | 308 | 0.0 | 3.2 | 0.00 | 0.00 | 0.00 | 87 | 1006.6 |
| 20260507074404 | 11 | 333 | 0.0 | 0.0 | 0.00 | 0.00 | 0.00 | 85 | 1006.4 |
| 20260507073902 | 11 | 300 | 0.0 | 1.6 | 0.00 | 0.00 | 0.00 | 85 | 1007.0 |
| 20260507073358 | 11 | 300 | 0.0 | 1.6 | 0.00 | 0.00 | 0.00 | 84 | 1006.7 |
| 20260507072855 | 11 | 300 | 0.0 | 1.6 | 0.00 | 0.00 | 0.00 | 84 | 1006.2 |
| 20260507072352 | 11 | 300 | 0.0 | 1.6 | 0.00 | 0.00 | 0.00 | 84 | 1006.0 |
| 20260507071850 | 11 | 300 | 0.0 | 0.0 | 0.00 | 0.00 | 0.00 | 83 | 1006.0 |
| 20260507071347 | 11 | 300 | 0.0 | 0.0 | 0.00 | 0.00 | 0.00 | 83 | 1006.2 |
| 20260507070843 | 11 | 300 | 0.0 | 0.0 | 0.00 | 0.00 | 0.00 | 82 | 1006.2 |
| 20260507070341 | 11 | 300 | 0.0 | 1.6 | 0.00 | 0.00 | 0.00 | 82 | 1006.4 |
| 20260507065837 | 11 | 300 | 0.0 | 0.0 | 0.00 | 0.00 | 0.00 | 82 | 1005.9 |
| 20260507065334 | 11 | 300 | 0.0 | 0.0 | 0.00 | 0.00 | 0.00 | 81 | 1005.9 |
| 20260507064831 | 11 | 292 | 0.0 | 0.0 | 0.00 | 0.00 | 0.00 | 81 | 1006.0 |
| 20260507064330 | 11 | 292 | 1.6 | 4.8 | 0.00 | 0.00 | 0.00 | 81 | 1006.1 |
| 20260507063827 | 11 | 355 | 1.6 | 1.6 | 0.00 | 0.00 | 0.00 | 82 | 1006.1 |
| 20260507063324 | 11 | 8 | 0.0 | 1.6 | 0.00 | 0.00 | 0.00 | 82 | 1005.9 |
| 20260507062820 | 11 | 333 | 0.0 | 0.0 | 0.00 | 0.00 | 0.00 | 82 | 1005.9 |
| 20260507062317 | 12 | 294 | 0.0 | 4.8 | 0.00 | 0.00 | 0.00 | 82 | 1006.0 |
| 20260507061816 | 12 | 302 | 4.8 | 4.8 | 0.00 | 0.00 | 0.00 | 83 | 1005.8 |
| 20260507061313 | 12 | 296 | 1.6 | 4.8 | 0.00 | 0.00 | 0.00 | 82 | 1006.0 |
| 20260507060811 | 12 | 318 | 0.0 | 3.2 | 0.00 | 0.00 | 0.00 | 83 | 1006.2 |
| 20260507060308 | 12 | 56 | 1.6 | 4.8 | 0.00 | 0.00 | 0.00 | 84 | 1006.0 |
| 20260507055804 | 12 | 297 | 0.0 | 0.0 | 0.00 | 0.00 | 0.00 | 84 | 1006.0 |
| 20260507055259 | 12 | 261 | 3.2 | 3.2 | 0.00 | 0.00 | 0.00 | 86 | 1006.2 |
| 20260507054756 | 12 | 297 | 0.0 | 1.6 | 0.00 | 0.00 | 0.00 | 87 | 1006.2 |
| 20260507054253 | 12 | 23 | 0.0 | 1.6 | 0.00 | 0.00 | 0.00 | 89 | 1006.2 |
| 20260507053750 | 12 | 317 | 1.6 | 3.2 | 0.00 | 0.00 | 0.00 | 88 | 1006.4 |
| 20260507053248 | 12 | 13 | 0.0 | 1.6 | 0.00 | 0.00 | 0.00 | 88 | 1006.3 |
| 20260507052746 | 12 | 290 | 1.6 | 6.4 | 0.00 | 0.00 | 0.00 | 89 | 1005.9 |
| 20260507052242 | 13 | 297 | 1.6 | 3.2 | 0.00 | 0.00 | 0.00 | 89 | 1006.1 |
| 20260507051741 | 13 | 321 | 3.2 | 3.2 | 0.00 | 0.00 | 0.00 | 89 | 1006.2 |
| 20260507051237 | 13 | 342 | 1.6 | 3.2 | 0.00 | 0.00 | 0.00 | 89 | 1005.9 |
| 20260507050733 | 13 | 289 | 3.2 | 4.8 | 0.00 | 0.00 | 0.00 | 89 | 1005.9 |
| 20260507050231 | 13 | 3 | 1.6 | 1.6 | 0.00 | 0.00 | 0.00 | 89 | 1006.0 |
| 20260507045728 | 13 | 302 | 0.0 | 4.8 | 0.00 | 0.00 | 0.00 | 90 | 1006.2 |
| 20260507045224 | 13 | 292 | 0.0 | 0.0 | 0.00 | 0.00 | 0.00 | 91 | 1006.2 |
| 20260507044721 | 13 | 297 | 0.0 | 0.0 | 0.00 | 0.00 | 0.00 | 91 | 1006.3 |
| 20260507044217 | 13 | 292 | 1.6 | 3.2 | 0.00 | 0.00 | 0.00 | 91 | 1006.2 |
| 20260507043714 | 13 | 290 | 1.6 | 4.8 | 0.00 | 0.00 | 0.00 | 91 | 1005.9 |
| 20260507043211 | 13 | 298 | 1.6 | 3.2 | 0.00 | 0.00 | 0.00 | 92 | 1005.8 |
| 20260507042707 | 14 | 340 | 0.0 | 1.6 | 0.00 | 0.00 | 0.00 | 92 | 1006.1 |
| 20260507042202 | 14 | 46 | 0.0 | 3.2 | 0.00 | 0.00 | 0.00 | 93 | 1006.0 |
| 20260507041700 | 15 | 306 | 0.0 | 0.0 | 0.00 | 0.00 | 0.00 | 94 | 1005.9 |
| 20260507041156 | 15 | 299 | 1.6 | 3.2 | 0.00 | 0.00 | 0.00 | 95 | 1006.0 |
| 20260507040653 | 15 | 258 | 0.0 | 0.0 | 0.00 | 0.00 | 0.00 | 95 | 1006.0 |
| 20260507040149 | 15 | 258 | 0.0 | 0.0 | 0.00 | 0.00 | 0.00 | 95 | 1006.1 |
| 20260507035645 | 15 | 258 | 0.0 | 0.0 | 0.00 | 0.15 | 0.15 | 95 | 1005.9 |
| 20260507035141 | 15 | 289 | 0.0 | 0.0 | 0.00 | 0.15 | 0.15 | 95 | 1005.9 |
| 20260507034638 | 15 | 288 | 0.0 | 0.0 | 0.00 | 0.15 | 0.15 | 95 | 1005.6 |
| 20260507034136 | 15 | 288 | 0.0 | 1.6 | 0.00 | 0.15 | 0.15 | 95 | 1005.6 |
| 20260507033634 | 15 | 245 | 0.0 | 0.0 | 0.00 | 0.15 | 0.15 | 95 | 1005.7 |
| 20260507033131 | 15 | 310 | 1.6 | 3.2 | 0.00 | 0.15 | 0.15 | 94 | 1005.8 |
| 20260507032629 | 15 | 312 | 0.0 | 1.6 | 0.18 | 0.15 | 0.15 | 94 | 1005.8 |
| 20260507032124 | 15 | 313 | 0.0 | 0.0 | 0.00 | 0.13 | 0.13 | 94 | 1005.8 |
| 20260507031621 | 15 | 267 | 1.6 | 1.6 | 0.00 | 0.13 | 0.13 | 93 | 1005.5 |
| 20260507031118 | 15 | 276 | 0.0 | 1.6 | 0.00 | 0.13 | 0.13 | 93 | 1005.4 |
| 20260507030615 | 15 | 277 | 0.0 | 0.0 | 0.00 | 0.13 | 0.13 | 93 | 1005.4 |
| 20260507030113 | 15 | 277 | 0.0 | 0.0 | 0.00 | 0.13 | 0.13 | 93 | 1005.1 |
| 20260507025609 | 15 | 277 | 0.0 | 0.0 | 0.00 | 0.13 | 0.13 | 93 | 1005.1 |
| 20260507025106 | 15 | 277 | 0.0 | 0.0 | 0.00 | 0.13 | 0.13 | 93 | 1005.3 |
| 20260507024604 | 15 | 297 | 0.0 | 1.6 | 0.00 | 0.13 | 0.13 | 93 | 1005.3 |
| 20260507024101 | 15 | 281 | 3.2 | 3.2 | 0.00 | 0.13 | 0.13 | 93 | 1005.3 |
| 20260507023556 | 15 | 275 | 0.0 | 4.8 | 0.00 | 0.13 | 0.13 | 93 | 1005.4 |
| 20260507023054 | 15 | 283 | 0.0 | 1.6 | 0.00 | 0.13 | 0.13 | 93 | 1005.4 |
| 20260507022551 | 15 | 152 | 0.0 | 1.6 | 0.00 | 0.13 | 0.13 | 93 | 1005.5 |
| 20260507022046 | 15 | 152 | 0.0 | 0.0 | 0.00 | 0.13 | 0.13 | 93 | 1005.4 |
| 20260507021543 | 15 | 159 | 1.6 | 3.2 | 0.00 | 0.13 | 0.13 | 93 | 1005.3 |
| 20260507021039 | 15 | 303 | 3.2 | 6.4 | 0.00 | 0.13 | 0.13 | 93 | 1005.5 |
| 20260507020537 | 15 | 203 | 1.6 | 1.6 | 0.00 | 0.13 | 0.13 | 93 | 1005.5 |
| 20260507020033 | 15 | 218 | 1.6 | 1.6 | 0.00 | 0.13 | 0.13 | 93 | 1005.3 |
| 20260507015532 | 15 | 199 | 1.6 | 3.2 | 0.00 | 0.13 | 0.13 | 93 | 1005.3 |
| 20260507015029 | 15 | 199 | 0.0 | 3.2 | 0.00 | 0.13 | 0.13 | 93 | 1005.4 |
| 20260507014525 | 15 | 307 | 0.0 | 3.2 | 0.00 | 0.13 | 0.13 | 93 | 1005.4 |
| 20260507014021 | 15 | 128 | 1.6 | 9.7 | 0.00 | 0.13 | 0.13 | 93 | 1005.6 |
| 20260507013518 | 15 | 174 | 0.0 | 1.6 | 0.00 | 0.13 | 0.13 | 93 | 1005.3 |
| 20260507013015 | 15 | 174 | 1.6 | 1.6 | 0.00 | 0.13 | 0.13 | 93 | 1005.6 |
| 20260507012512 | 15 | 271 | 0.0 | 0.0 | 0.00 | 0.13 | 0.13 | 93 | 1005.5 |
| 20260507012008 | 15 | 147 | 3.2 | 6.4 | 0.00 | 0.13 | 0.13 | 93 | 1005.5 |
| 20260507011506 | 15 | 133 | 1.6 | 1.6 | 0.00 | 0.13 | 0.13 | 93 | 1005.5 |
| 20260507011001 | 15 | 188 | 1.6 | 1.6 | 0.00 | 0.13 | 0.13 | 93 | 1005.5 |
| 20260507010456 | 15 | 178 | 1.6 | 4.8 | 0.00 | 0.13 | 0.13 | 93 | 1005.6 |
| 20260507005953 | 15 | 176 | 0.0 | 1.6 | 0.00 | 0.13 | 0.13 | 93 | 1005.5 |
| 20260507005451 | 15 | 172 | 1.6 | 1.6 | 0.00 | 0.13 | 0.13 | 93 | 1005.8 |
| 20260507004947 | 15 | 144 | 0.0 | 3.2 | 0.00 | 0.13 | 0.13 | 93 | 1005.7 |
| 20260507004443 | 15 | 172 | 3.2 | 3.2 | 0.00 | 0.13 | 0.13 | 93 | 1005.6 |
| 20260507003941 | 15 | 285 | 3.2 | 9.7 | 0.00 | 0.13 | 0.13 | 93 | 1005.5 |
| 20260507003436 | 15 | 183 | 0.0 | 1.6 | 0.00 | 0.13 | 0.13 | 93 | 1005.7 |
| 20260507002931 | 15 | 219 | 3.2 | 4.8 | 0.00 | 0.13 | 0.13 | 93 | 1005.3 |
| 20260507002428 | 15 | 152 | 1.6 | 4.8 | 0.00 | 0.13 | 0.13 | 93 | 1005.6 |
| 20260507001925 | 15 | 164 | 1.6 | 3.2 | 0.00 | 0.13 | 0.13 | 93 | 1005.6 |
| 20260507001422 | 15 | 308 | 3.2 | 3.2 | 0.00 | 0.13 | 0.13 | 93 | 1005.6 |
| 20260507000919 | 15 | 189 | 1.6 | 3.2 | 0.00 | 0.13 | 0.13 | 93 | 1005.3 |
| 20260507000415 | 15 | 186 | 1.6 | 1.6 | 0.00 | 0.13 | 0.13 | 93 | 1005.2 |
| 20260506235910 | 15 | 179 | 0.0 | 3.2 | 0.00 | 0.13 | 0.13 | 93 | 1005.3 |
| 20260506235408 | 15 | 172 | 0.0 | 3.2 | 0.00 | 0.13 | 0.13 | 93 | 1005.2 |
| 20260506234903 | 15 | 168 | 3.2 | 4.8 | 0.00 | 0.13 | 0.13 | 93 | 1005.4 |
| 20260506234402 | 15 | 172 | 0.0 | 0.0 | 0.00 | 0.13 | 0.13 | 93 | 1005.3 |
| 20260506233859 | 15 | 170 | 3.2 | 4.8 | 0.00 | 0.13 | 0.13 | 93 | 1005.3 |
| 20260506233354 | 15 | 185 | 1.6 | 1.6 | 0.00 | 0.13 | 0.13 | 93 | 1005.2 |
| 20260506232852 | 15 | 284 | 0.0 | 0.0 | 0.18 | 0.13 | 0.13 | 92 | 1005.2 |
| 20260506232348 | 15 | 202 | 3.2 | 3.2 | 0.00 | 0.10 | 0.10 | 92 | 1005.3 |
| 20260506231844 | 15 | 262 | 0.0 | 3.2 | 0.00 | 0.10 | 0.10 | 92 | 1005.3 |
| 20260506231342 | 15 | 268 | 0.0 | 1.6 | 0.00 | 0.10 | 0.10 | 92 | 1005.3 |
| 20260506230839 | 15 | 278 | 1.6 | 1.6 | 0.00 | 0.10 | 0.10 | 92 | 1005.3 |
| 20260506230336 | 15 | 217 | 0.0 | 3.2 | 0.00 | 0.10 | 0.10 | 92 | 1005.3 |
| 20260506225832 | 15 | 139 | 0.0 | 3.2 | 0.00 | 0.10 | 0.10 | 92 | 1005.4 |
| 20260506225329 | 15 | 165 | 1.6 | 4.8 | 0.00 | 0.10 | 0.10 | 92 | 1005.5 |
| 20260506224826 | 15 | 254 | 0.0 | 1.6 | 0.00 | 0.10 | 0.10 | 92 | 1005.3 |
| 20260506224323 | 15 | 167 | 1.6 | 9.7 | 0.00 | 0.10 | 0.10 | 92 | 1005.4 |
| 20260506223820 | 15 | 273 | 4.8 | 9.7 | 0.00 | 0.10 | 0.10 | 91 | 1005.5 |
| 20260506223315 | 15 | 234 | 0.0 | 3.2 | 0.00 | 0.10 | 0.10 | 91 | 1005.5 |
| 20260506222813 | 15 | 159 | 1.6 | 4.8 | 0.00 | 0.10 | 0.10 | 91 | 1005.6 |
| 20260506222308 | 15 | 176 | 0.0 | 3.2 | 0.13 | 0.10 | 0.10 | 91 | 1005.6 |
| 20260506221806 | 15 | 162 | 0.0 | 1.6 | 0.13 | 0.10 | 0.10 | 91 | 1005.8 |
| 20260506221303 | 15 | 207 | 4.8 | 4.8 | 0.00 | 0.08 | 0.08 | 90 | 1005.8 |
| 20260506220801 | 15 | 302 | 1.6 | 4.8 | 0.00 | 0.08 | 0.08 | 90 | 1005.8 |
| 20260506220255 | 16 | 122 | 3.2 | 6.4 | 0.00 | 0.08 | 0.08 | 89 | 1005.8 |
| 20260506215752 | 16 | 323 | 1.6 | 1.6 | 0.00 | 0.08 | 0.08 | 88 | 1005.7 |
| 20260506215248 | 16 | 161 | 1.6 | 4.8 | 0.00 | 0.08 | 0.08 | 87 | 1006.0 |
| 20260506214744 | 16 | 194 | 1.6 | 3.2 | 0.00 | 0.08 | 0.08 | 88 | 1006.0 |
| 20260506214241 | 16 | 146 | 1.6 | 3.2 | 0.00 | 0.08 | 0.08 | 88 | 1006.2 |
| 20260506213740 | 16 | 198 | 1.6 | 1.6 | 0.00 | 0.08 | 0.08 | 88 | 1006.1 |
| 20260506213237 | 16 | 193 | 1.6 | 1.6 | 0.00 | 0.08 | 0.08 | 88 | 1006.2 |
| 20260506212735 | 16 | 148 | 4.8 | 4.8 | 0.00 | 0.08 | 0.08 | 88 | 1006.2 |
| 20260506212230 | 16 | 218 | 0.0 | 3.2 | 0.00 | 0.08 | 0.08 | 89 | 1006.3 |
| 20260506211725 | 16 | 271 | 0.0 | 1.6 | 0.00 | 0.08 | 0.08 | 89 | 1006.3 |
| 20260506211221 | 16 | 179 | 0.0 | 3.2 | 0.00 | 0.08 | 0.08 | 89 | 1006.3 |
| 20260506210718 | 16 | 317 | 4.8 | 6.4 | 0.00 | 0.08 | 0.08 | 88 | 1006.3 |
| 20260506210216 | 16 | 197 | 3.2 | 6.4 | 0.00 | 0.08 | 0.08 | 88 | 1006.3 |
| 20260506205713 | 16 | 198 | 1.6 | 3.2 | 0.00 | 0.08 | 0.08 | 88 | 1006.3 |
| 20260506205208 | 16 | 245 | 1.6 | 3.2 | 0.00 | 0.08 | 0.08 | 88 | 1006.3 |
| 20260506204705 | 16 | 178 | 1.6 | 4.8 | 0.00 | 0.08 | 0.08 | 88 | 1006.4 |
| 20260506204202 | 16 | 169 | 0.0 | 1.6 | 0.00 | 0.08 | 0.08 | 88 | 1006.5 |
| 20260506203700 | 16 | 184 | 0.0 | 1.6 | 0.00 | 0.08 | 0.08 | 88 | 1006.6 |
| 20260506203157 | 16 | 224 | 0.0 | 1.6 | 0.18 | 0.08 | 0.08 | 87 | 1006.4 |
| 20260506202655 | 16 | 247 | 1.6 | 6.4 | 0.13 | 0.05 | 0.05 | 86 | 1006.3 |
| 20260506202151 | 16 | 295 | 1.6 | 3.2 | 0.13 | 0.05 | 0.05 | 85 | 1006.4 |
| 20260506201648 | 16 | 277 | 0.0 | 3.2 | 0.00 | 0.03 | 0.03 | 84 | 1006.2 |
| 20260506201144 | 17 | 269 | 1.6 | 4.8 | 0.00 | 0.03 | 0.03 | 83 | 1006.3 |
| 20260506200641 | 17 | 209 | 0.0 | 3.2 | 0.18 | 0.03 | 0.03 | 82 | 1006.5 |
| 20260506200138 | 17 | 271 | 1.6 | 4.8 | 0.18 | 0.03 | 0.03 | 81 | 1006.1 |
| 20260506195634 | 17 | 353 | 1.6 | 3.2 | 0.00 | 0.00 | 0.00 | 82 | 1006.1 |
| 20260506195131 | 17 | 176 | 0.0 | 1.6 | 0.00 | 0.00 | 0.00 | 81 | 1006.3 |
| 20260506194628 | 17 | 163 | 3.2 | 6.4 | 0.00 | 0.00 | 0.00 | 77 | 1006.3 |
| 20260506194124 | 18 | 221 | 1.6 | 3.2 | 0.00 | 0.00 | 0.00 | 76 | 1006.6 |
| 20260506193623 | 18 | 174 | 4.8 | 9.7 | 0.00 | 0.00 | 0.00 | 74 | 1006.6 |
| 20260506193119 | 18 | 159 | 3.2 | 4.8 | 0.00 | 0.00 | 0.00 | 74 | 1006.6 |
| 20260506192616 | 18 | 240 | 1.6 | 3.2 | 0.00 | 0.00 | 0.00 | 72 | 1006.5 |
| 20260506192112 | 18 | 272 | 3.2 | 14.5 | 0.00 | 0.00 | 0.00 | 70 | 1006.5 |
| 20260506191609 | 19 | 208 | 0.0 | 3.2 | 0.00 | 0.00 | 0.00 | 70 | 1006.5 |
| 20260506191104 | 19 | 295 | 3.2 | 3.2 | 0.00 | 0.00 | 0.00 | 68 | 1006.3 |
| 20260506190602 | 20 | 312 | 1.6 | 3.2 | 0.00 | 0.00 | 0.00 | 66 | 1006.3 |
| 20260506190059 | 20 | 283 | 1.6 | 4.8 | 0.00 | 0.00 | 0.00 | 64 | 1006.4 |
| 20260506185556 | 20 | 256 | 3.2 | 4.8 | 0.00 | 0.00 | 0.00 | 62 | 1006.6 |
| 20260506185053 | 20 | 209 | 1.6 | 11.3 | 0.00 | 0.00 | 0.00 | 60 | 1006.7 |
| 20260506184550 | 21 | 34 | 0.0 | 3.2 | 0.00 | 0.00 | 0.00 | 59 | 1006.6 |
| 20260506184047 | 21 | 274 | 3.2 | 14.5 | 0.00 | 0.00 | 0.00 | 57 | 1006.5 |
| 20260506183543 | 21 | 303 | 8.0 | 12.9 | 0.00 | 0.00 | 0.00 | 55 | 1006.4 |
| 20260506183040 | 21 | 141 | 1.6 | 9.7 | 0.00 | 0.00 | 0.00 | 53 | 1006.5 |
| 20260506182537 | 22 | 269 | 3.2 | 6.4 | 0.00 | 0.00 | 0.00 | 52 | 1006.7 |
| 20260506182035 | 22 | 146 | 3.2 | 11.3 | 0.00 | 0.00 | 0.00 | 51 | 1006.5 |
| 20260506181532 | 22 | 175 | 1.6 | 1.6 | 0.00 | 0.00 | 0.00 | 50 | 1006.6 |
| 20260506181029 | 22 | 291 | 6.4 | 11.3 | 0.00 | 0.00 | 0.00 | 49 | 1006.7 |
| 20260506180525 | 22 | 200 | 4.8 | 9.7 | 0.00 | 0.00 | 0.00 | 49 | 1006.5 |
| 20260506180022 | 22 | 291 | 0.0 | 6.4 | 0.00 | 0.00 | 0.00 | 51 | 1006.7 |
| 20260506175519 | 22 | 158 | 3.2 | 6.4 | 0.00 | 0.00 | 0.00 | 51 | 1006.9 |
| 20260506175015 | 22 | 174 | 8.0 | 12.9 | 0.00 | 0.00 | 0.00 | 51 | 1006.9 |
| 20260506174514 | 22 | 216 | 4.8 | 6.4 | 0.00 | 0.00 | 0.00 | 51 | 1006.7 |
| 20260506174009 | 22 | 212 | 1.6 | 11.3 | 0.00 | 0.00 | 0.00 | 52 | 1006.8 |
| 20260506173507 | 22 | 192 | 1.6 | 4.8 | 0.00 | 0.00 | 0.00 | 52 | 1006.9 |
| 20260506173004 | 22 | 192 | 1.6 | 11.3 | 0.00 | 0.00 | 0.00 | 52 | 1007.0 |
| 20260506172502 | 23 | 157 | 3.2 | 6.4 | 0.00 | 0.00 | 0.00 | 51 | 1006.8 |
| 20260506171957 | 22 | 294 | 3.2 | 4.8 | 0.00 | 0.00 | 0.00 | 52 | 1006.9 |
| 20260506171455 | 22 | 149 | 1.6 | 14.5 | 0.00 | 0.00 | 0.00 | 52 | 1007.0 |
| 20260506170953 | 22 | 218 | 8.0 | 12.9 | 0.00 | 0.00 | 0.00 | 52 | 1006.9 |
| 20260506170449 | 22 | 170 | 1.6 | 4.8 | 0.00 | 0.00 | 0.00 | 54 | 1006.8 |
| 20260506165948 | 22 | 182 | 0.0 | 6.4 | 0.00 | 0.00 | 0.00 | 54 | 1007.1 |
| 20260506165446 | 22 | 210 | 3.2 | 6.4 | 0.00 | 0.00 | 0.00 | 54 | 1007.2 |
| 20260506164942 | 22 | 247 | 3.2 | 6.4 | 0.00 | 0.00 | 0.00 | 54 | 1007.3 |
| 20260506164438 | 22 | 314 | 4.8 | 6.4 | 0.00 | 0.00 | 0.00 | 53 | 1007.3 |
| 20260506163936 | 22 | 257 | 0.0 | 1.6 | 0.00 | 0.00 | 0.00 | 54 | 1007.3 |
| 20260506163431 | 22 | 256 | 1.6 | 4.8 | 0.00 | 0.00 | 0.00 | 53 | 1007.3 |
| 20260506162926 | 22 | 248 | 1.6 | 6.4 | 0.00 | 0.00 | 0.00 | 53 | 1007.6 |
| 20260506162424 | 22 | 303 | 6.4 | 17.7 | 0.00 | 0.00 | 0.00 | 51 | 1007.4 |
| 20260506161921 | 22 | 271 | 1.6 | 6.4 | 0.00 | 0.00 | 0.00 | 51 | 1007.6 |
| 20260506161420 | 22 | 312 | 3.2 | 11.3 | 0.00 | 0.00 | 0.00 | 52 | 1007.7 |
| 20260506160916 | 22 | 271 | 3.2 | 3.2 | 0.00 | 0.00 | 0.00 | 52 | 1007.8 |
| 20260506160414 | 22 | 189 | 1.6 | 4.8 | 0.00 | 0.00 | 0.00 | 51 | 1007.8 |
| 20260506155911 | 22 | 161 | 1.6 | 6.4 | 0.00 | 0.00 | 0.00 | 51 | 1007.9 |
| 20260506155408 | 22 | 297 | 1.6 | 3.2 | 0.00 | 0.00 | 0.00 | 52 | 1008.0 |
| 20260506153525 | 22 | 316 | 3.2 | 9.7 | 0.00 | 0.00 | 0.00 | 53 | 1008.3 |
| 20260506153022 | 22 | 260 | 0.0 | 9.7 | 0.00 | 0.00 | 0.00 | 53 | 1008.4 |
| 20260506152519 | 22 | 197 | 0.0 | 6.4 | 0.00 | 0.00 | 0.00 | 53 | 1008.6 |
| 20260506152017 | 22 | 284 | 6.4 | 9.7 | 0.00 | 0.00 | 0.00 | 52 | 1008.5 |
| 20260506151514 | 22 | 316 | 0.0 | 4.8 | 0.00 | 0.00 | 0.00 | 54 | 1008.5 |
| 20260506151012 | 22 | 216 | 1.6 | 14.5 | 0.00 | 0.00 | 0.00 | 55 | 1008.3 |
| 20260506150508 | 21 | 296 | 3.2 | 11.3 | 0.00 | 0.00 | 0.00 | 55 | 1008.6 |
| 20260506150005 | 21 | 177 | 3.2 | 4.8 | 0.00 | 0.00 | 0.00 | 56 | 1008.9 |
| 20260506145501 | 21 | 234 | 1.6 | 12.9 | 0.00 | 0.00 | 0.00 | 57 | 1008.9 |
| 20260506144959 | 21 | 280 | 0.0 | 1.6 | 0.00 | 0.00 | 0.00 | 58 | 1008.7 |
| 20260506144455 | 21 | 191 | 3.2 | 17.7 | 0.00 | 0.00 | 0.00 | 59 | 1008.6 |
| 20260506143954 | 21 | 263 | 1.6 | 6.4 | 0.00 | 0.00 | 0.00 | 61 | 1008.4 |
| 20260506143450 | 20 | 176 | 1.6 | 6.4 | 0.00 | 0.00 | 0.00 | 60 | 1008.6 |
| 20260506142949 | 20 | 33 | 1.6 | 4.8 | 0.00 | 0.00 | 0.00 | 60 | 1009.0 |
| 20260506142446 | 20 | 286 | 3.2 | 4.8 | 0.00 | 0.00 | 0.00 | 61 | 1008.6 |
| 20260506141944 | 20 | 147 | 6.4 | 11.3 | 0.00 | 0.00 | 0.00 | 61 | 1008.5 |
| 20260506141442 | 20 | 146 | 4.8 | 6.4 | 0.00 | 0.00 | 0.00 | 62 | 1008.7 |
| 20260506140940 | 20 | 204 | 3.2 | 9.7 | 0.00 | 0.00 | 0.00 | 62 | 1008.6 |
| 20260506140437 | 20 | 270 | 6.4 | 11.3 | 0.00 | 0.00 | 0.00 | 63 | 1008.7 |
| 20260506135933 | 20 | 295 | 1.6 | 9.7 | 0.00 | 0.00 | 0.00 | 64 | 1008.8 |
| 20260506135431 | 19 | 199 | 0.0 | 1.6 | 0.00 | 0.00 | 0.00 | 65 | 1009.0 |
| 20260506134927 | 19 | 311 | 1.6 | 4.8 | 0.00 | 0.00 | 0.00 | 66 | 1008.9 |
| 20260506134423 | 19 | 138 | 0.0 | 3.2 | 0.00 | 0.00 | 0.00 | 66 | 1009.0 |
| 20260506133920 | 19 | 287 | 3.2 | 3.2 | 0.00 | 0.00 | 0.00 | 67 | 1009.1 |
| 20260506133417 | 18 | 316 | 0.0 | 4.8 | 0.00 | 0.00 | 0.00 | 68 | 1009.4 |
| 20260506132914 | 18 | 164 | 3.2 | 3.2 | 0.00 | 0.00 | 0.00 | 67 | 1009.3 |
| 20260506132411 | 18 | 159 | 3.2 | 6.4 | 0.00 | 0.00 | 0.00 | 67 | 1009.4 |
| 20260506131909 | 18 | 141 | 3.2 | 6.4 | 0.00 | 0.00 | 0.00 | 68 | 1009.2 |
| 20260506131404 | 18 | 306 | 3.2 | 3.2 | 0.00 | 0.00 | 0.00 | 68 | 1009.3 |
| 20260506130902 | 18 | 161 | 3.2 | 4.8 | 0.00 | 0.00 | 0.00 | 68 | 1009.2 |
| 20260506130358 | 18 | 227 | 3.2 | 4.8 | 0.00 | 0.00 | 0.00 | 69 | 1009.3 |
| 20260506125856 | 18 | 178 | 4.8 | 12.9 | 0.00 | 0.00 | 0.00 | 68 | 1009.4 |
| 20260506125354 | 18 | 179 | 0.0 | 0.0 | 0.00 | 0.00 | 0.00 | 68 | 1009.3 |
| 20260506124853 | 18 | 186 | 3.2 | 12.9 | 0.00 | 0.00 | 0.00 | 68 | 1009.2 |
| 20260506124349 | 18 | 310 | 6.4 | 9.7 | 0.00 | 0.00 | 0.00 | 70 | 1009.2 |
| 20260506123847 | 17 | 289 | 6.4 | 9.7 | 0.00 | 0.00 | 0.00 | 71 | 1009.2 |
| 20260506123345 | 17 | 177 | 1.6 | 9.7 | 0.00 | 0.00 | 0.00 | 72 | 1009.5 |
| 20260506122842 | 17 | 185 | 3.2 | 6.4 | 0.00 | 0.00 | 0.00 | 72 | 1009.6 |
| 20260506122339 | 17 | 228 | 0.0 | 9.7 | 0.00 | 0.00 | 0.00 | 72 | 1009.4 |
| 20260506121837 | 17 | 244 | 3.2 | 6.4 | 0.00 | 0.00 | 0.00 | 72 | 1009.6 |
| 20260506121334 | 17 | 269 | 1.6 | 3.2 | 0.00 | 0.00 | 0.00 | 72 | 1009.5 |
| 20260506120831 | 17 | 190 | 3.2 | 6.4 | 0.00 | 0.00 | 0.00 | 73 | 1009.2 |
| 20260506120329 | 17 | 194 | 3.2 | 4.8 | 0.00 | 0.00 | 0.00 | 73 | 1009.5 |
| 20260506115826 | 17 | 155 | 4.8 | 4.8 | 0.00 | 0.00 | 0.00 | 72 | 1009.5 |